167P/CINEOS (2001)

Japanese version
Home page
Updated on September 2, 2011

---------------------------------------------------------------------

* Profile

Designation 167P/2004 PY42
Discovery Date August 10, 2004
Magnitude 19.8 mag
Discoverer Campo Imperatore Near Earth Objects Survey

* Orbital Elements

The following orbital elements are taken from MPC 75722:

Epoch 2001 May 11.0 TT = JDT 2452040.5
T 2001 Apr. 24.1989 TT                                  MPC
q  11.788260             (2000.0)            P               Q
n   0.0152142      Peri.  344.0477      +0.1854377      +0.9373513
a  16.130067       Node   295.8436      -0.8619480      +0.0110344
e   0.269175       Incl.   19.1297      -0.4718671      +0.3482109
P  64.8
From 88 observations 2002-2009, mean residual 0".4.

* Finding Charts

* Magnitudes Graph

        H = 9.0  G = 0.15

---------------------------------------------------------------------

The orbital elements are published at the MPC Ephemerides and Orbital Elements.
The charts are made with StellaNavigator Ver.2.0 for Windows (AstroArts / ASCII).
The magnitudes graphs are made with Comet for Windows.

---------------------------------------------------------------------

Copyright(C) Seiichi Yoshida (comet@aerith.net). All rights reserved.